www.pogodaiklimat.ru
ПОГОДА в Йёнчёпинге
Время
(UTC), дата
10 30.11
11 30.11
12 30.11
13 30.11
14 30.11
15 30.11
16 30.11
17 30.11
18 30.11
19 30.11
20 30.11
21 30.11
22 30.11
23 30.11
00 1.12
01 1.12
02 1.12
03 1.12
04 1.12
05 1.12
06 1.12
07 1.12
08 1.12
10 1.12
11 1.12
12 1.12
13 1.12
14 1.12
15 1.12
16 1.12
17 1.12
18 1.12
19 1.12
20 1.12
21 1.12
22 1.12
23 1.12
00 2.12
01 2.12
02 2.12
03 2.12
04 2.12
05 2.12
06 2.12
07 2.12
08 2.12
09 2.12
10 2.12
11 2.12
12 2.12
13 2.12
14 2.12
15 2.12
16 2.12
17 2.12
18 2.12
19 2.12
20 2.12
21 2.12
22 2.12
23 2.12
00 3.12
01 3.12
02 3.12
03 3.12
04 3.12
05 3.12
06 3.12
07 3.12
08 3.12
09 3.12
10 3.12
11 3.12
12 3.12
13 3.12
14 3.12
15 3.12
16 3.12
17 3.12
18 3.12
19 3.12
20 3.12
21 3.12
22 3.12
23 3.12
00 4.12
01 4.12
02 4.12
03 4.12
04 4.12
05 4.12
06 4.12
07 4.12
08 4.12
09 4.12
10 4.12
11 4.12
12 4.12
13 4.12
14 4.12
15 4.12
16 4.12
17 4.12
18 4.12
19 4.12
20 4.12
21 4.12
22 4.12
23 4.12
00 5.12
01 5.12
02 5.12
03 5.12
04 5.12
05 5.12
06 5.12
07 5.12
08 5.12
09 5.12
10 5.12
11 5.12
12 5.12
13 5.12
14 5.12
15 5.12
16 5.12
17 5.12
18 5.12
19 5.12
20 5.12
21 5.12
22 5.12
23 5.12
00 6.12
01 6.12
02 6.12
03 6.12
04 6.12
05 6.12
06 6.12
07 6.12
08 6.12
09 6.12
10 6.12
11 6.12
12 6.12
13 6.12
14 6.12
15 6.12
16 6.12
17 6.12
18 6.12
19 6.12
20 6.12
21 6.12
22 6.12
23 6.12
00 7.12
01 7.12
02 7.12
03 7.12
04 7.12
05 7.12
06 7.12
07 7.12
08 7.12
09 7.12
10 7.12
Ветер
(напр.,м/с)
Видим. Явления Облачность Т
(С)
Тd
(С)
f
(%)
Тe
(С)
Тes
(С)
Комфортность P
(гПа)
Po
(гПа)
Тmin
(С)
Tmax
(С)
R
(мм)
R24
(мм)
S
(см)
З 3 50 км н/о -2.3 -5.6 78 -7 -7 холодно 1014.6 986.4
З 3 45 км н/о -1.0 -4.0 80 -6 -6 холодно 1014.7 986.6
З 3 50 км н/о -0.2 -2.7 83 -5 -5 холодно 1015.2 987.2
З 4 45 км н/о -0.2 -2.3 86 -6 -6 холодно 1015.8 987.8
З 3 50 км н/о -1.0 -3.0 86 -6 -6 холодно 1016.1 988.0
З 1 50 км н/о -3.5 -4.9 90 -6 -6 холодно 1017.1 988.8
СЗ 1 50 км н/о -4.0 -5.0 93 -6 -6 холодно 1017.8 989.4
СЗ 2 50 км н/о -6.3 -6.7 97 -11 -11 очень
холодно
1018.4 989.9
СЗ 1 50 км н/о -7.4 -7.6 98 -10 -10 очень
холодно
1018.8 990.2 -7.7 0.0
З 1 45 км н/о -7.2 -7.6 97 -10 -10 очень
холодно
1019.2 990.6
штиль 0 50 км н/о -8.0 -8.5 96 -9 -9 очень
холодно
1019.6 990.9
З 1 50 км н/о -8.9 -9.4 96 -11 -11 очень
холодно
1019.7 991.0
З 1 50 км н/о -9.7 -10.3 95 -12 -12 очень
холодно
1019.9 991.1
З 1 50 км н/о -10.4 -11.2 94 -13 -13 очень
холодно
1020.0 991.3
ЮЗ 2 50 км н/о -10.1 -10.7 95 -15 -15 очень
холодно
1019.9 991.1
ЮЗ 1 50 км н/о -8.6 -9.3 95 -11 -11 очень
холодно
1019.5 990.8
штиль 0 50 км н/о -10.3 -11.1 94 -11 -11 очень
холодно
1019.4 990.6
ЮЗ 1 50 км н/о -7.9 -8.5 95 -10 -10 очень
холодно
1018.7 990.1
ЮЗ 1 50 км н/о -6.4 -6.9 96 -9 -9 очень
холодно
1018.4 989.9
ЮЗ 4 50 км н/о -4.8 -5.6 94 -11 -11 очень
холодно
1017.7 989.3
ЮЗ 2 50 км н/о -5.5 -6.3 94 -10 -10 очень
холодно
1017.3 988.9 -10.7 -4.8
Ю 2 50 км н/о -6.7 -7.2 96 -11 -11 очень
холодно
1017.4 988.9
Ю 2 50 км н/о -5.1 -5.8 95 -10 -10 очень
холодно
1017.1 988.7
ЮЗ 2 50 км н/о -2.3 -3.2 94 -6 -6 холодно 1016.3 988.1
ЮЗ 3 50 км н/о -1.6 -2.6 93 -7 -7 холодно 1015.7 987.5
ЮЗ 3 50 км н/о -1.8 -2.7 94 -7 -7 холодно 1015.3 987.2
ЮЗ 3 50 км н/о -1.9 -2.9 93 -7 -7 холодно 1014.9 986.7
З 4 50 км н/о -1.8 -2.8 93 -8 -8 очень
холодно
1014.2 986.1
З 3 50 км н/о -1.9 -3.0 92 -7 -7 холодно 1013.8 985.7
ЮЗ 2 50 км н/о -2.5 -3.2 95 -7 -7 холодно 1013.7 985.6
ЮЗ 3 50 км н/о -1.6 -2.1 96 -7 -7 холодно 1013.3 985.3
ЮЗ 1 50 км н/о -0.9 -1.5 96 -3 -3 прохладно 1013.1 985.1 -7.1 -0.9
ЮЗ 2 50 км н/о -0.5 -0.9 97 -4 -4 прохладно 1012.8 984.8
ЮЗ 3 50 км н/о -1.0 -1.3 98 -6 -6 холодно 1012.7 984.7
ЮЗ 1 8000 м дымка н/о -0.8 -0.9 99 -3 -3 прохладно 1012.5 984.5
ЮЗ 2 12 км н/о -0.1 -0.1 100 -4 -4 прохладно 1012.0 984.0
ЮЗ 2 16 км н/о 0.0 0.0 100 -4 -4 прохладно 1011.8 983.8
ЮЗ 2 30 км н/о -0.1 -0.1 100 -4 -4 прохладно 1012.0 984.1
З 1 16 км н/о -0.8 -0.8 100 -3 -3 прохладно 1012.1 984.1
С 1 30 км н/о -1.1 -1.1 100 -3 -3 прохладно 1012.1 984.1
СЗ 3 28 км н/о -1.2 -1.2 100 -6 -6 холодно 1012.2 984.1
СЗ 1 9000 м н/о -1.8 -1.8 100 -4 -4 прохладно 1012.3 984.2
СЗ 2 9000 м н/о -2.2 -2.2 100 -6 -6 холодно 1012.5 984.4
СЗ 2 5000 м дымка н/о -2.8 -2.8 100 -7 -7 холодно 1012.6 984.5 -2.9 +0.1
СЗ 1 2900 м дымка н/о -4.2 -4.2 100 -7 -7 холодно 1013.1 984.8
СЗ 1 50 км н/о -5.1 -5.4 98 -8 -8 очень
холодно
1013.5 985.2
З 1 45 км н/о -4.4 -4.6 99 -7 -7 холодно 1014.0 985.7
З 1 45 км н/о -4.4 -4.6 99 -7 -7 холодно 1014.0 985.7
штиль 0 45 км н/о -1.1 -1.7 96 -2 -2 по сезону 1014.3 986.2
З 2 50 км н/о -1.4 -2.6 92 -5 -5 холодно 1014.6 986.5
СЗ 1 50 км н/о -1.3 -2.3 93 -4 -4 прохладно 1015.1 987.0
З 2 50 км н/о -1.4 -2.7 91 -5 -5 холодно 1015.3 987.2
СЗ 3 50 км н/о -2.6 -3.6 93 -8 -8 очень
холодно
1016.2 988.0
З 3 50 км н/о -3.3 -4.3 93 -9 -9 очень
холодно
1016.5 988.3
З 3 50 км н/о -4.1 -5.0 93 -10 -10 очень
холодно
1017.2 988.9
З 3 50 км н/о -4.8 -5.4 96 -10 -10 очень
холодно
1018.2 989.8 -5.2 -0.3
З 3 50 км н/о -5.4 -6.1 95 -11 -11 очень
холодно
1018.8 990.4
З 4 50 км н/о -4.5 -5.6 92 -11 -11 очень
холодно
1019.2 990.8
ЮЗ 2 50 км н/о -5.7 -6.5 94 -10 -10 очень
холодно
1019.8 991.3
штиль 0 50 км н/о -7.2 -8.0 94 -8 -8 очень
холодно
1020.5 991.9
Ю 1 50 км н/о -8.1 -8.6 96 -11 -11 очень
холодно
1020.9 992.3
Ю 2 50 км н/о -9.3 -9.8 96 -14 -14 очень
холодно
1021.0 992.3
З 3 50 км н/о -6.7 -7.6 93 -12 -12 очень
холодно
1020.8 992.3
З 3 50 км н/о -6.1 -7.3 91 -12 -12 очень
холодно
1021.0 992.4
З 3 50 км н/о -6.4 -7.6 91 -12 -12 очень
холодно
1021.1 992.5
З 3 50 км н/о -6.6 -7.9 90 -12 -12 очень
холодно
1020.7 992.2
З 3 50 км н/о -5.1 -6.3 91 -11 -11 очень
холодно
1020.6 992.1
ЮЗ 3 50 км н/о -4.9 -6.0 92 -10 -10 очень
холодно
1019.7 991.3 -10.4 -4.3
Ю 3 50 км н/о -3.9 -5.1 91 -9 -9 очень
холодно
1019.3 990.9
ЮЗ 4 50 км н/о -3.6 -4.4 94 -10 -10 очень
холодно
1018.7 990.3
ЮЗ 4 50 км н/о -1.9 -2.8 94 -8 -8 очень
холодно
1018.5 990.3
ЮЗ 5 50 км н/о -0.9 -2.0 92 -7 -7 холодно 1017.6 989.5
ЮЗ 6 8000 м слаб. переохл. дождь (гололёд) н/о -0.0 -0.5 96 -7 -7 холодно 1016.8 988.7
ЮЗ 5 7000 м слаб. дождь н/о +0.5 +0.2 98 -6 -6 холодно 1015.5 987.4
ЮЗ 8 4400 м слаб. дождь н/о +1.0 +0.9 99 -6 -6 холодно 1013.6 985.7
ЮЗ 6 9000 м дымка н/о +1.4 +1.4 100 -5 -5 холодно 1012.0 984.2
ЮЗ 7 3300 м в посл. час морось н/о +2.4 +2.4 100 -4 -4 прохладно 1010.8 983.0
ЮЗ 6 5000 м дымка н/о +3.0 +2.9 99 -3 -3 прохладно 1010.2 982.5
ЮЗ 3 4200 м дымка н/о +3.9 +3.9 100 -0 -0 по сезону 1010.3 982.7
З 5 16 км н/о +4.5 +4.4 99 -1 -1 по сезону 1009.9 982.3 -5.1 +4.7
ЮЗ 3 30 км н/о +4.8 +4.5 98 +1 +1 по сезону 1010.3 982.8
З 2 24 км н/о +5.0 +4.5 97 +2 +2 по сезону 1010.5 983.0
ЮЗ 2 30 км н/о +4.3 +4.0 98 +1 +1 по сезону 1010.8 983.2
ЮЗ 2 40 км н/о +4.1 +3.8 98 +1 +1 по сезону 1011.4 983.8
ЮЗ 3 35 км н/о +4.6 +4.3 98 +1 +1 по сезону 1011.6 984.0
ЮЗ 4 35 км н/о +4.4 +4.2 99 -0 -0 по сезону 1011.7 984.1
ЮЗ 4 30 км н/о +4.5 +4.2 98 0 0 по сезону 1011.8 984.2
ЮЗ 3 26 км н/о +4.7 +4.4 98 +1 +1 по сезону 1012.1 984.6
ЮЗ 3 12 км н/о +4.7 +4.6 99 +1 +1 по сезону 1011.5 984.0
З 5 21 км н/о +4.9 +4.6 98 -0 -0 по сезону 1011.7 984.1
З 7 9000 м дымка н/о +4.9 +4.6 98 -1 -1 по сезону 1011.6 984.1
З 6 21 км н/о +5.0 +4.7 98 -0 -0 по сезону 1011.8 984.2 +3.8 +5.2
ЮЗ 5 23 км н/о +5.1 +4.5 96 0 0 по сезону 1012.5 985.0
ЮЗ 5 21 км н/о +5.1 +4.3 95 0 0 по сезону 1013.1 985.5
ЮЗ 6 29 км н/о +5.1 +4.3 95 -0 -0 по сезону 1013.3 985.7
ЮЗ 6 16 км н/о +5.2 +4.4 95 -0 -0 по сезону 1013.2 985.7
ЮЗ 6 22 км н/о +5.2 +4.6 96 -0 -0 по сезону 1013.0 985.5
ЮЗ 5 23 км н/о +5.1 +4.4 95 0 0 по сезону 1013.0 985.4
ЮЗ 5 24 км н/о +4.9 +4.3 96 0 0 по сезону 1012.9 985.4
ЮЗ 5 22 км н/о +4.7 +4.1 96 -0 -0 по сезону 1012.8 985.2
ЮЗ 6 23 км н/о +4.3 +3.6 95 -1 -1 по сезону 1013.2 985.5
ЮЗ 6 17 км н/о +4.3 +3.6 95 -1 -1 по сезону 1013.4 985.7
ЮЗ 7 30 км н/о +4.3 +3.4 94 -2 -2 по сезону 1013.5 985.9
ЮЗ 5 30 км н/о +4.3 +3.1 92 -1 -1 по сезону 1013.5 985.9 +4.1 +5.4
ЮЗ 5 35 км н/о +4.5 +3.2 91 -0 -0 по сезону 1013.3 985.7
ЮЗ 6 30 км н/о +4.5 +3.1 91 -1 -1 по сезону 1013.0 985.4
ЮЗ 6 26 км н/о +4.2 +3.2 93 -1 -1 по сезону 1012.1 984.5
ЮЗ 5 29 км н/о +4.5 +3.4 93 -1 -1 по сезону 1012.2 984.6
ЮЗ 6 28 км н/о +4.7 +3.5 92 -1 -1 по сезону 1011.5 983.9
ЮЗ 6 40 км н/о +5.4 +3.7 89 0 0 по сезону 1011.0 983.5
ЮЗ 6 35 км н/о +5.4 +3.6 88 0 0 по сезону 1010.7 983.2
ЮЗ 5 40 км н/о +5.5 +3.7 88 +1 +1 по сезону 1010.4 982.9
ЮЗ 5 35 км н/о +5.5 +4.0 90 +1 +1 по сезону 1009.9 982.4
ЮЗ 5 16 км н/о +5.5 +4.0 90 +1 +1 по сезону 1009.5 982.1
ЮЗ 7 13 км н/о +5.3 +4.4 94 -0 -0 по сезону 1008.6 981.2
ЮЗ 8 4400 м дымка н/о +5.1 +4.6 97 -1 -1 по сезону 1008.4 981.0 +4.0 +5.7
ЮЗ 8 6000 м слаб. ливневой дождь н/о +5.1 +4.7 97 -1 -1 по сезону 1008.0 980.6
ЮЗ 7 6000 м н/о +5.4 +4.8 96 -0 -0 по сезону 1007.6 980.2
ЮЗ 8 30 км слаб. ливневой дождь н/о +5.6 +5.1 97 -0 -0 по сезону 1007.5 980.1
ЮЗ 9 40 км н/о +5.8 +4.5 91 -0 -0 по сезону 1006.8 979.5
ЮЗ 9 40 км н/о +6.0 +3.9 86 0 0 по сезону 1006.3 979.0
ЮЗ 9 40 км н/о +6.2 +3.3 82 +1 +1 по сезону 1005.7 978.4
ЮЗ 7 50 км н/о +6.0 +3.2 82 +1 +1 по сезону 1005.0 977.7
ЮЗ 7 45 км н/о +5.8 +2.9 82 +1 +1 по сезону 1003.9 976.7
ЮЗ 9 50 км н/о +5.7 +2.9 82 -0 -0 по сезону 1003.3 976.0
ЮЗ 9 45 км н/о +5.8 +3.1 83 0 0 по сезону 1002.2 975.0
ЮЗ 10 45 км н/о +5.8 +3.0 82 -0 -0 по сезону 1001.8 974.6
ЮЗ 9 40 км н/о +5.9 +3.2 83 0 0 по сезону 1001.5 974.4 +5.1 +6.4
ЮЗ 9 23 км н/о +6.0 +3.5 84 0 0 по сезону 1000.9 973.8
ЮЗ 8 45 км н/о +5.9 +3.3 83 0 0 по сезону 1000.4 973.3
ЮЗ 9 27 км н/о +5.7 +3.6 86 -0 -0 по сезону 999.5 972.4
ЮЗ 8 17 км н/о +5.9 +3.2 83 0 0 по сезону 997.9 970.8
ЮЗ 7 14 км слаб. ливневой дождь н/о +5.5 +3.6 88 0 0 по сезону 996.8 969.7
ЮЗ 10 9000 м слаб. дождь н/о +4.8 +3.9 94 -2 -2 по сезону 995.0 967.9
ЮЗ 11 22 км слаб. дождь н/о +4.7 +3.8 94 -2 -2 по сезону 993.6 966.6
ЮЗ 10 19 км слаб. дождь н/о +4.6 +3.7 94 -2 -2 по сезону 992.3 965.2
ЮЗ 11 40 км слаб. дождь н/о +4.5 +3.6 94 -3 -3 прохладно 990.8 963.8
ЮЗ 11 5000 м морось н/о +4.9 +4.3 96 -2 -2 по сезону 989.3 962.4
ЮЗ 9 5000 м морось н/о +6.0 +5.4 96 0 0 по сезону 988.4 961.6
ЮЗ 10 6000 м слаб. дождь н/о +7.4 +6.9 97 +2 +2 по сезону 987.8 961.1 +4.4 +7.5
ЮЗ 9 4900 м дымка н/о +8.2 +7.6 96 +3 +3 по сезону 988.2 961.6
ЮЗ 9 6000 м дымка н/о +8.5 +7.8 95 +3 +3 по сезону 989.3 962.7
ЮЗ 9 5000 м дымка н/о +8.1 +7.4 95 +3 +3 по сезону 990.4 963.7
З 9 11 км н/о +8.0 +6.9 93 +3 +3 по сезону 991.0 964.3
З 9 15 км н/о +7.4 +6.4 93 +2 +2 по сезону 991.9 965.1
З 8 18 км н/о +7.3 +6.2 93 +2 +2 по сезону 992.4 965.6
ЮЗ 8 23 км н/о +7.1 +6.1 93 +2 +2 по сезону 992.6 965.8
ЮЗ 9 10 км н/о +7.0 +5.8 92 +1 +1 по сезону 993.2 966.3
ЮЗ 4 6000 м дымка н/о +6.8 +6.4 97 +3 +3 по сезону 993.0 966.2
Ю 5 5000 м дымка н/о +7.2 +7.1 99 +3 +3 по сезону 992.5 965.7
Ю 6 3500 м дымка н/о +7.7 +7.4 98 +3 +3 по сезону 992.4 965.6
ЮЗ 7 5000 м дымка н/о +7.8 +7.5 98 +3 +3 по сезону 991.9 965.2 +6.8 +8.7
ЮЗ 7 5000 м дымка н/о +7.1 +6.6 97 +2 +2 по сезону 992.0 965.2
Ю 7 4400 м дымка н/о +6.5 +6.1 97 +1 +1 по сезону 991.7 964.8
Ю 7 16 км дождь н/о +6.0 +5.6 97 +1 +1 по сезону 991.3 964.5
Ю 7 2900 м морось н/о +5.8 +5.3 97 0 0 по сезону 990.4 963.6
Ю 7 4600 м дымка н/о +5.8 +5.4 97 0 0 по сезону 989.8 962.9
Ю 7 6000 м н/о +5.9 +5.5 97 +1 +1 по сезону 989.2 962.3
Ю 6 4600 м слаб. ливневой дождь н/о +5.9 +5.5 97 +1 +1 по сезону 988.5 961.7
Ю 6 4600 м морось н/о +6.1 +5.8 98 +1 +1 по сезону 987.8 961.0
Ю 6 4800 м слаб. ливневой дождь н/о +6.6 +6.3 98 +2 +2 по сезону 987.2 960.5
ЮЗ 6 5000 м слаб. ливневой дождь н/о +6.9 +6.6 98 +2 +2 по сезону 986.9 960.2
ЮЗ 7 9000 м слаб. ливневой дождь н/о +7.3 +7.0 98 +2 +2 по сезону 986.7 960.0
ЮЗ 4 8000 м слаб. ливневой дождь н/о +7.2 +6.9 98 +3 +3 по сезону 986.9 960.3 +5.7 +7.9
ЮЗ 3 50 км слаб. ливневой дождь н/о +7.1 +6.9 99 +4 +4 по сезону 987.1 960.4
ЮЗ 5 8000 м в посл. час морось н/о +7.1 +6.7 97 +3 +3 по сезону 987.4 960.7
З 6 14 км морось н/о +6.6 +5.9 95 +2 +2 по сезону 988.1 961.4
З 6 12 км слаб. ливневой дождь н/о +5.8 +5.0 95 +1 +1 по сезону 989.0 962.2
Местоположение метеостанции Йёнчёпинг (Швеция): широта 57.75 долгота 14.08 высота над уровнем моря 224 м.
В архиве по умолчанию представлена погода в Йёнчёпинге за последнюю неделю. Архивные данные за месяц целиком и за предыдущие месяцы, начиная с января 2011 года, Вы можете получить, выбрав интересующий диапазон дат из раскрывающегося списка и нажав кнопку "Найти!".
*Определитесь, кто Вы:
Внимание! Время в таблицах - всемирное. Для получения местного времени необходимо прибавить поправку, которая равна 1 ч.
Смотрите также архив погоды в соседних городах и на ближайших метеорологических станциях:
Партнеры нашего сайта:      
Пояснения к столбцам:
  • Ветер - указаны скорость ветра в м/с - средняя за 10 мин, порывы в срок и между сроками (в фигурных скобках) и направление, откуда дует ветер: С - северный,
  • СВ - северо-восточный, В - восточный, ЮВ - юго-восточный, Ю - южный, ЮЗ - юго-западный, З - западный, СЗ - северо-западный.
  • Видимость - горизонтальная дальность видимости в метрах или километрах. При видимости от 1 до 10 км при отсутствии осадков обычно наблюдается дымка, при ухудшении видимости до 1 км и менее - туман. В сухую погоду видимость может ухудшаться дымом, пылью или мглою.
  • Явления - указаны атмосферные явления, наблюдавшиеся в срок или в последний час перед сроком; фигурными скобками обозначены явления, наблюдавшиеся между сроками (за 1-3 часа до срока); квадратными скобками обозначены град или гололедные отложения с указанием их диаметра в мм.
  • Облачность - указаны через наклонную черту общая и нижняя облачность в баллах и высота нижней границы облаков в метрах; квадратными скобками обозначены формы облаков: Ci - перистые, Cs - перисто-слоистые, Cc - перисто-кучевые, Ac - высококучевые, As - высокослоистые, Sc - слоисто-кучевые, Ns - слоисто-дождевые, Cu - кучевые, Cb - кучево-дождевые. Подробнее классификацию облаков см. в Атласе облаков (PDF).
  • T - Температура воздуха - температура, измеренная на высоте 2 м над землей.
  • Td - Температура точки росы - температура, при понижении до которой содержащийся в воздухе водяной пар достигнет насыщения.
  • f - Относительная влажность воздуха - влажноcть воздуха, измеренная на высоте 2 м над землей.
  • Te - Эффективная температура - температура, которую ощущает одетый по сезону человек в тени. Характеристика душности погоды. При расчете учитывается влияние влажности воздуха и скорости ветра на теплоощущения человека.
  • Tes - Эффективная температура на солнце - температура, которую ощущает человек, с поправкой на солнечный нагрев. Характеристика знойности погоды. Зависит от высоты солнца над горизонтом, облачности и скорости ветра. Ночью, в пасмурную погоду, а также при ветре 12 м/с и более поправка равна нулю.
  • P - Атмосферное давление - приведенное к уровню моря атмосферное давление.
  • Po - Атмосферное давление - измеренное на уровне метеостанции атмосферное давление.
  • Tmin - Минимальная температура - минимум температуры воздуха на высоте 2 м над землей.
  • Tmax - Максимальная температура - максимум температуры воздуха на высоте 2 м над землей.
  • R - Количество осадков - Количество выпавших осадков за период времени, мм. При наведении курсора мыши на число - период времени, за который выпало указанное количество осадков.
  • R24 - Количество осадков - Количество выпавших осадков за 24 часа, мм.
  • S - Снежный покров - Высота снежного покрова, см. При наведении курсора мыши на число - состояние снежного покрова и степень покрытия местности в баллах.